Voltar ao catálogo

FREGAT DEB

LostUNKNOWN
NORAD 46016·DEBRIS·🇷🇺 Russia

Lançado Jul 18, 2011 de Baikonur Cosmodrome

Loading…

Próximas Passagens (próximas 24 horas)

TLE

ObsoletoSource: Space-Track

Época: Feb 7, 2023, 11:29 UTC

1 46016U 11037HT  23038.47896513  .00003710  00000-0  10080-1 0  9999
2 46016  51.3300  79.8255 1228379 105.1079 268.8686 11.64306202105377

Acompanhe FREGAT DEB em tempo real com AllMySat

Download on the App Store